HAIYANG 1

导读 | 星芒AI

HAIYANG 1 是中国自主研发的海洋观测卫星系列,主要用于监测海洋环境和气候变化。该卫星搭载多种遥感仪器,能够获取海面温度、风速、波浪等关键数据,为海洋科学研究、渔业资源管理及防灾减灾提供重要支持。HAIYANG 1 卫星的发射提升了中国在海洋遥感领域的技术水平和应用能力,对推动可持续海洋开发和生态保护具有重要意义。

基本信息
目录编号:
27430
目录名称:
HAIYANG 1
国际标识:
2002-024A
轨道中心:
EARTH
卫星名称:
HAIYANG 1
卫星全名:
--
卫星状态:
在轨 (已飞行8615 天)
发射日期:
2002-05-15 UTC
国别 :
中国 (CN)
星等 :
--
轨道信息
数据来源 国际轨道数据 AOE轨道数据
星历时间 2025-12-15T05:44:13+0800
20小时前
查看轨道信息
2025-12-14T16:00:00+0800
1天前
查看轨道信息
半长轴 7159.866km 7159.856km
偏心率 0.0007638 0.0007721
轨道倾角 98.704° 98.704°
近地点辐角 259.931° 261.677°
升交点赤经 304.760° 304.187°
平近点角 100.101° 27.282°
近地点 776.262km 776.192km
远地点 787.2km 787.25km
周期 100.489分钟 100.488分钟
每日圈数 14.329975 14.330005
详细信息
使用方式:
暂无
2D轨道图
3D轨道图
轨道高度分析图
轨道倾角分析图
轨道综合分析图
查看轨道综合分析图